星链-1356 (STARLINK-1356 )

导读

STARLINK-1356是美国太空探索技术公司(SpaceX)旗下星链(Starlink)星座的一颗低轨通信卫星,于2020年4月22日发射入轨。星链星座部署于约550公里近地轨道,通过相控阵天线、激光互联与OFDM传输技术,为全球提供低时延高速卫星互联网接入,可覆盖偏远地区,支持应急通信与终端直连手机等应用。

Basic Information
目录编号:
45564
目录名称:
STARLINK-1356
国际标识:
2020-025AK
轨道中心:
EARTH
卫星名称:
星链-1356
卫星全名:
星链-1356 (STARLINK-1356 )
卫星状态:
在轨 (已飞行2333 天)
发射日期:
2020-04-22 UTC
国别 :
美国 (US)
星等 :
--
This satellite is enrolled in the Space Conjunction Data Service (SCDS) and the current flight risk assessment level is: No High Risk
Orbit Information
数据来源 国际轨道数据
星历时间: 2026-09-10T15:19:33+0800
1天前
查看轨道信息
半长轴: 6725.621km
偏心率: 0.0003198
轨道倾角: 53.038°
近地点辐角 33.065°
升交点赤经 252.987°
平近点角 327.057°
近地点: 345.333km
远地点: 349.635km
周期: 91.487分钟
每日圈数: 15.739983
Detailed Information
固有亮度:
5
最大亮度:
2.5
卫星平台:
Starlink V1.0
覆盖范围:
全球
运营商:
太空探索技术公司
运营商所在国:
美国
制造商(研发单位):
太空探索技术公司
制造商所在国:
美国
使用方式:
暂无
Satellite Introduction
星链(Starlink)计划是由太空探索技术公司(SpaceX)提出的一个巨型低轨卫星互联网星座项目,计划在2019年至2024年间在太空搭建由约1.2万颗卫星组成的“星链”网络,其中1584颗将部署在地球上空550千米处的近地轨道,并从2020年开始工作。该卫星仍在工作。
2D Orbit Map
3D Orbit Map
Orbit Altitude Analysis Chart
Orbit Inclination Analysis Chart
Orbit Comprehensive Analysis Chart
View Comprehensive Chart
Conjunction Data List
Event ID Objects TCA Miss Dist (km) Collision Risk Probability Collision Risk Index (CRI) Action
CDM_260908-105701-671904-556422
2026-09-08T
10:57:34+0000
1.750 km
极远距离
1.997571E-6 低风险 0.41
CDM_260908-092601-671904-556422
2026-09-08T
09:26:02+0000
2.902 km
极远距离
7.407898E-7 极低风险 0.32
Miss Distance Evolution Trend with All Objects
Collision Probability Evolution Trend with All Objects